Home   Weather   Greensboro   Past weeks

Flag for USA Past Weather in Greensboro, North Carolina, USA — Yesterday and Last 2 Weeks

Now
65 °F

Low clouds.


Feels Like: 65 °F
Forecast: 67 / 79 °F
Wind: 10 mph from Southeast

Location: Piedmont Triad International Airport

Current Time: Sep 29, 2016 at 2:50:01 AM

Latest Report: Sep 29, 2016 at 1:54 AM


Visibility: 10 mi

Pressure: 29.91 "Hg

Humidity: 100%

Dew Point: 65 °F

Location of GreensboroLocation

Past Weather in Greensboro — Graph

°F

Greensboro Temperature Yesterday

Maximum temperature yesterday: 81 °F (at 2:54 PM)
Minimum temperature yesterday: 67 °F (at 4:54 AM)
Average temperature yesterday: 71 °F

High & Low Weather Summary for the Past Weeks

 TemperatureHumidityPressure
High91 °F (Sep 14, 2:54 PM)100% (Sep 14, 5:54 AM)30.22 "Hg (Sep 14, 5:54 AM)
Low65 °F (Sep 24, 5:54 AM)35% (Sep 14, 4:54 PM)29.84 "Hg (Sep 27, 4:54 PM)
Average74 °F82%30.05 "Hg
* Reported Sep 14 12:54 AM — Sep 29 12:54 AM, Greensboro, Weather by CustomWeather, © 2016

Note: Actual official high and low records may vary slightly from our data, if they occured in-between our weather recording intervals... More about our weather records

Advertising

Greensboro Weather History for the Previous 24 Hours

Scroll right to see more
 ConditionsComfort  
Time TempWeatherWind HumidityBarometerVisibility
12:54 AM
Thu, Sep 29
67 °FLow clouds.13 mph100%29.93 "Hg10 mi
11:54 PM
Wed, Sep 28
68 °FThunderstorms. Partly cloudy.12 mph96%29.93 "Hg10 mi
10:54 PM67 °FThunderstorms. Mostly cloudy.9 mph100%29.92 "Hg8 mi
9:54 PM68 °FThunderstorms. Partly cloudy.10 mph100%29.91 "Hg10 mi
8:54 PM68 °FThunderstorms. Partly cloudy.8 mph96%29.91 "Hg10 mi
7:54 PM69 °FThunderstorms. Mostly cloudy.9 mph96%29.90 "Hg10 mi
6:54 PM71 °FStrong thunderstorms. Fog.6 mph93%29.88 "Hg4 mi
5:54 PM73 °FThunderstorms. Broken clouds.6 mph90%29.86 "Hg10 mi
5:03 PM70 °FStrong thunderstorms. Fog.18 mph87%29.92 "Hg1 mi
4:54 PM70 °FThunderstorms. Partly sunny.No wind87%29.87 "Hg10 mi
3:54 PM72 °FThunderstorms. Partly sunny.15 mph84%29.87 "Hg7 mi
2:54 PM81 °FThunderstorms. Partly sunny.12 mph67%29.87 "Hg10 mi
1:54 PM80 °FPartly sunny.9 mph69%29.90 "Hg10 mi
12:54 PM79 °FPartly sunny.8 mph72%29.91 "Hg10 mi
11:54 AM76 °FBroken clouds.5 mph77%29.93 "Hg10 mi
10:54 AM74 °FBroken clouds.3 mph85%29.92 "Hg9 mi
9:54 AM70 °FFog.No wind93%29.92 "Hg6 mi
8:54 AM69 °FFog.3 mph96%29.91 "Hg5 mi
7:54 AM67 °FFog.No wind100%29.90 "Hg3 mi
7:01 AM67 °FFog.8 mph100%29.93 "Hg4 mi
5:54 AM67 °FPassing clouds.No wind100%29.88 "Hg9 mi
4:54 AM67 °FPassing clouds.No wind100%29.88 "Hg10 mi
3:54 AM68 °FMostly cloudy.5 mph96%29.88 "Hg10 mi
2:54 AM68 °FMostly cloudy.No wind96%29.89 "Hg10 mi
2:00 AM69 °FMostly cloudy.5 mph96%29.91 "Hg10 mi
Weather by CustomWeather, © 2016

See weather overviewHow to use our weather pages